Miscellaneous Local Product
Issued by NWS North Platte, NE

Home | Current Version | Previous Version | Text Only | Print | Product List | Glossary On
Versions: 1 2 3 4 5 6 7 8 9 10 11 12 13 14 15 16 17 18 19 20 21 22 23 24 25 26 27 28 29 30 31 32 33 34 35 36 37 38 39 40 41 42 43 44 45 46 47 48 49 50
700
AXUS43 KLBF 250610
MISLBF


WESTERN AND NORTH CENTRAL NEBRASKA HOURLY WEATHER ROUNDUP
NATIONAL WEATHER SERVICE NORTH PLATTE NE
1200 AM CST SAT FEB 25 2017

NOTE: "FAIR" INDICATES FEW OR NO CLOUDS BELOW 12,000 FEET WITH NO
SIGNIFICANT WEATHER AND/OR OBSTRUCTIONS TO VISIBILITY.

NOTE: STATIONS NOT REPORTING VARIABLES SUCH AS SKY/WEATHER OR
PRESSURE ARE PROVIDED BY RAWS AND APRS NETWORKS AND ARE NOT UNDER
NATIONAL WEATHER SERVICE QUALITY CONTROL.

...OBSERVATIONS IN AND NEAR THE EASTERN PANHANDLE OF NEBRASKA...

CITY           SKY/WX    TMP DP  RH WIND       PRES   REMARKS
PINE RIDGE     CLOUDY     6   3  87 CALM      30.05F
CHADRON        CLOUDY     4   0  83 SW3       30.06F
ALLIANCE       FOG       -1  -4  87 CALM      30.04F VSB 1/2
SIDNEY         CLOUDY     5   1  83 SW9       30.04F WCI  -9
CRESCENT LAKE    N/A      9   7  91 CALM        N/A
$$

...OBSERVATIONS IN NORTHERN NEBRASKA AND FAR SOUTHERN SOUTH DAKOTA...

CITY           SKY/WX    TMP DP  RH WIND       PRES   REMARKS
WINNER         FAIR      16  10  77 SW5       30.11F WCI   9
VALENTINE      CLOUDY     3  -2  79 SW7       30.11F WCI  -9
THEDFORD       CLOUDY     7   4  89 W3        30.11F
AINSWORTH      CLOUDY     8   5  89 W8        30.10S WCI  -5
O`NEILL        CLOUDY    17  11  79 NW8       30.11S WCI   6
ORD            CLEAR     14   8  77 NW9       30.11F WCI   2
BROKEN BOW     CLOUDY    14   8  77 W3        30.11S
VALENTINE NWR    N/A     11   7  84 W6          N/A  WCI   2
BUTTE            N/A     17  11  78 CALM        N/A
HALSEY           N/A      8   3  80 NW3         N/A
CHAMBERS         N/A     15   6  67 CALM        N/A
EWING            N/A     15  11  83 NW8         N/A  WCI   4
$$

...OBSERVATIONS IN SOUTHWEST NEBRASKA AND FAR NORTHEAST COLORADO...

CITY           SKY/WX    TMP DP  RH WIND       PRES   REMARKS
HOLYOKE        FAIR      14  10  85 W5        30.11R WCI   6
IMPERIAL       CLOUDY    15  11  83 W3        30.13S
OGALLALA       CLOUDY     8   5  89 W6        30.12S WCI  -2
NORTH PLATTE   CLOUDY    12   7  80 NW8       30.14F WCI   0
MCCOOK         CLOUDY    16  10  77 NW9       30.17S WCI   4
LEXINGTON      CLOUDY    15  10  77 W12       30.14S WCI   2
STAPLETON        N/A      8   4  84 CALM        N/A
GOTHENBURG       N/A     15   9  77 NW7         N/A  WCI   5
CALLAWAY         N/A     11   7  84 NW8         N/A  WCI  -1
$$

...OBSERVATIONS IN CENTRAL LINCOLN COUNTY AREA...

CITY           SKY/WX    TMP DP  RH WIND       PRES   REMARKS
N.P. AIRPORT   CLOUDY    12   7  80 NW8       30.14F WCI   0
N.P. DOWNTOWN    N/A     18  11  74 W3          N/A
N.P. SOUTHEAST   N/A     16  10  76 CALM        N/A
N.P. HILLCREST   N/A     12   8  83 N5          N/A  WCI   4
$$

...SOME OBSERVATIONS FROM AROUND THE REGION...

CITY           SKY/WX    TMP DP  RH WIND       PRES   REMARKS
LARAMIE        CLOUDY     4  -1  80 SW7       29.90F WCI  -8
CHEYENNE       CLOUDY     6   2  83 W7        29.95F WCI  -6
DENVER         CLOUDY    18  14  84 S8        30.01F WCI   8
AKRON          CLEAR     12   7  80 SW5       30.05F WCI   4
SCOTTSBLUFF    CLOUDY    12   7  80 CALM      30.04S
RAPID CITY     CLOUDY    13   9  84 CALM      30.01F
BISMARCK       MOCLDY    18  15  88 CALM      30.07F
PIERRE         CLOUDY    20  13  74 SE3       30.10F
SIOUX FALLS    PTCLDY    19  14  81 NW12      30.05R WCI   7
OMAHA          PTCLDY    24  15  68 NW18      30.05R WCI  10
GRAND ISLAND   CLEAR     16  11  80 NW12      30.12S WCI   3
KANSAS CITY    PTCLDY    24  18  77 W9        30.06R WCI  14
WICHITA        CLEAR     25  16  68 NW12      30.18R WCI  14
OKLAHOMA CITY  PTCLDY    34  23  64 N9        30.15R WCI  27
DALLAS         CLEAR     48  27  44 N21       30.08R
AMARILLO       CLEAR     27  16  63 NE12      30.12R WCI  17
DODGE CITY     CLEAR     12   7  80 N9        30.16S WCI   0
HAYS           CLEAR     14  10  84 W7        30.19S WCI   4
GOODLAND       CLEAR     12  10  92 W5        30.12S WCI   4
$$




USA.gov is the U.S. government's official web portal to all federal, state and local government web resources and services.